| time (UTC) | temp F | wind direction | speed knots | gust knots | rain 1hr in | rain 24hr in | rain mn in | humidity % | barometer mb |
| 20260831171607 | 69 | 46 | 1.7 | 5.2 | 0.00 | 0.05 | 0.00 | 43 | 1026.4 |
| 20260831170107 | 69 | 338 | 1.7 | 4.3 | 0.00 | 0.05 | 0.00 | 43 | 1026.3 |
| 20260831164613 | 69 | 33 | 1.7 | 7.0 | 0.00 | 0.05 | 0.00 | 41 | 1026.2 |
| 20260831163101 | 70 | 7 | 3.5 | 6.1 | 0.00 | 0.05 | 0.00 | 40 | 1026.1 |
| 20260831161612 | 71 | 23 | 0.9 | 6.1 | 0.00 | 0.05 | 0.00 | 37 | 1026.0 |
| 20260831160111 | 72 | 13 | 0.0 | 5.2 | 0.00 | 0.05 | 0.00 | 35 | 1025.8 |
| 20260831154629 | 72 | 6 | 1.7 | 4.3 | 0.00 | 0.05 | 0.00 | 34 | 1025.8 |
| 20260831153104 | 73 | 27 | 0.0 | 2.6 | 0.00 | 0.05 | 0.00 | 34 | 1025.8 |
| 20260831151608 | 71 | 274 | 0.9 | 2.6 | 0.00 | 0.05 | 0.00 | 35 | 1025.9 |
| 20260831150107 | 69 | 0 | 0.0 | 2.6 | 0.00 | 0.05 | 0.00 | 38 | 1025.8 |
| 20260831144606 | 69 | 0 | 0.0 | 2.6 | 0.00 | 0.05 | 0.00 | 39 | 1025.8 |
| 20260831143116 | 66 | 0 | 0.0 | 4.3 | 0.00 | 0.05 | 0.00 | 42 | 1025.7 |
| 20260831141618 | 65 | 0 | 0.0 | 1.7 | 0.00 | 0.05 | 0.00 | 43 | 1025.6 |
| 20260831140115 | 64 | 0 | 0.0 | 2.6 | 0.00 | 0.05 | 0.00 | 44 | 1025.4 |
| 20260831134608 | 63 | 205 | 0.0 | 0.9 | 0.00 | 0.05 | 0.00 | 45 | 1025.2 |
| 20260831133104 | 64 | 261 | 0.9 | 2.6 | 0.00 | 0.05 | 0.00 | 43 | 1025.1 |
| 20260831131607 | 64 | 0 | 0.0 | 2.6 | 0.00 | 0.05 | 0.00 | 43 | 1025.1 |
| 20260831130111 | 66 | 0 | 0.0 | 2.6 | 0.00 | 0.05 | 0.00 | 39 | 1024.8 |
| 20260831124614 | 66 | 221 | 0.9 | 4.3 | 0.00 | 0.05 | 0.00 | 38 | 1024.6 |
| 20260831123105 | 66 | 0 | 1.7 | 7.0 | 0.00 | 0.05 | 0.00 | 39 | 1024.4 |
| 20260831121609 | 64 | 212 | 0.0 | 2.6 | 0.00 | 0.05 | 0.00 | 42 | 1024.3 |
| 20260831120103 | 65 | 0 | 0.0 | 5.2 | 0.00 | 0.05 | 0.00 | 42 | 1024.2 |
| 20260831114602 | 65 | 203 | 2.6 | 6.1 | 0.00 | 0.05 | 0.00 | 41 | 1024.2 |
| 20260831113105 | 62 | 0 | 0.0 | 2.6 | 0.00 | 0.05 | 0.00 | 46 | 1024.1 |
| 20260831111606 | 63 | 0 | 0.0 | 3.5 | 0.00 | 0.05 | 0.00 | 44 | 1024.2 |
| 20260831104611 | 63 | 235 | 1.7 | 6.1 | 0.00 | 0.05 | 0.00 | 43 | 1024.1 |
| 20260831103106 | 63 | 241 | 0.9 | 5.2 | 0.00 | 0.05 | 0.00 | 44 | 1024.0 |
| 20260831101606 | 64 | 231 | 3.5 | 7.8 | 0.00 | 0.05 | 0.00 | 42 | 1024.0 |
| 20260831100124 | 63 | 213 | 1.7 | 5.2 | 0.00 | 0.05 | 0.00 | 43 | 1023.9 |
| 20260831094607 | 63 | 195 | 0.9 | 5.2 | 0.00 | 0.05 | 0.00 | 44 | 1023.7 |
| 20260831093132 | 63 | 221 | 1.7 | 5.2 | 0.00 | 0.05 | 0.00 | 44 | 1023.6 |
| 20260831091606 | 63 | 0 | 0.9 | 2.6 | 0.00 | 0.05 | 0.00 | 43 | 1023.6 |
| 20260831090129 | 63 | 193 | 1.7 | 8.7 | 0.00 | 0.05 | 0.00 | 43 | 1023.6 |
| 20260831084604 | 64 | 219 | 1.7 | 4.3 | 0.00 | 0.05 | 0.00 | 42 | 1023.6 |
| 20260831083113 | 63 | 190 | 1.7 | 6.1 | 0.00 | 0.05 | 0.00 | 42 | 1023.6 |
| 20260831081606 | 64 | 171 | 0.0 | 3.5 | 0.00 | 0.05 | 0.00 | 42 | 1023.7 |
| 20260831080129 | 64 | 203 | 0.9 | 6.1 | 0.00 | 0.05 | 0.00 | 42 | 1023.8 |
| 20260831074606 | 64 | 195 | 1.7 | 5.2 | 0.00 | 0.05 | 0.00 | 43 | 1024.0 |
| 20260831073105 | 63 | 180 | 1.7 | 8.7 | 0.00 | 0.05 | 0.00 | 44 | 1024.3 |
| 20260831071605 | 63 | 181 | 1.7 | 6.1 | 0.00 | 0.05 | 0.00 | 45 | 1024.5 |
| 20260831070112 | 63 | 244 | 2.6 | 7.8 | 0.00 | 0.05 | 0.00 | 46 | 1024.6 |
| 20260831064608 | 63 | 224 | 5.2 | 12.2 | 0.00 | 0.05 | 0.00 | 47 | 1024.6 |
| 20260831063114 | 63 | 153 | 3.5 | 10.4 | 0.00 | 0.05 | 0.00 | 48 | 1024.5 |
| 20260831061612 | 63 | 228 | 3.5 | 10.4 | 0.00 | 0.05 | 0.00 | 49 | 1024.4 |
| 20260831060109 | 62 | 188 | 0.9 | 7.0 | 0.00 | 0.05 | 0.00 | 51 | 1024.3 |
| 20260831054611 | 61 | 223 | 2.6 | 8.7 | 0.00 | 0.05 | 0.05 | 51 | 1024.5 |
| 20260831053132 | 61 | 0 | 0.9 | 7.8 | 0.00 | 0.05 | 0.05 | 52 | 1024.8 |
| 20260831051606 | 61 | 139 | 0.9 | 11.3 | 0.00 | 0.05 | 0.05 | 52 | 1025.0 |
| 20260831050109 | 62 | 203 | 5.2 | 13.9 | 0.00 | 0.05 | 0.05 | 50 | 1025.8 |
| 20260831044645 | 64 | 262 | 3.5 | 18.2 | 0.00 | 0.05 | 0.05 | 48 | 1026.1 |
| 20260831043107 | 66 | 217 | 3.5 | 8.7 | 0.00 | 0.05 | 0.05 | 46 | 1025.7 |
| 20260831041617 | 66 | 179 | 4.3 | 13.9 | 0.00 | 0.05 | 0.05 | 44 | 1025.7 |
| 20260831040109 | 66 | 208 | 3.5 | 7.0 | 0.00 | 0.05 | 0.05 | 45 | 1024.9 |
| 20260831034609 | 66 | 221 | 2.6 | 7.0 | 0.00 | 0.05 | 0.05 | 44 | 1024.8 |
| 20260831033110 | 66 | 165 | 2.6 | 5.2 | 0.00 | 0.05 | 0.05 | 44 | 1024.6 |
| 20260831031605 | 66 | 222 | 2.6 | 7.8 | 0.00 | 0.05 | 0.05 | 44 | 1024.7 |
| 20260831030104 | 66 | 189 | 2.6 | 5.2 | 0.00 | 0.05 | 0.05 | 46 | 1024.6 |
| 20260831024602 | 66 | 207 | 3.5 | 9.6 | 0.00 | 0.05 | 0.05 | 46 | 1024.3 |
| 20260831023107 | 66 | 274 | 3.5 | 7.0 | 0.00 | 0.05 | 0.05 | 46 | 1024.3 |
| 20260831021605 | 66 | 203 | 2.6 | 7.8 | 0.00 | 0.05 | 0.05 | 46 | 1024.0 |
| 20260831020104 | 66 | 173 | 2.6 | 6.1 | 0.00 | 0.05 | 0.05 | 45 | 1023.7 |
| 20260831014603 | 67 | 239 | 2.6 | 8.7 | 0.00 | 0.05 | 0.05 | 44 | 1023.8 |
| 20260831013106 | 67 | 207 | 3.5 | 9.6 | 0.00 | 0.05 | 0.05 | 43 | 1023.8 |
| 20260831011602 | 68 | 188 | 3.5 | 10.4 | 0.00 | 0.05 | 0.05 | 42 | 1023.8 |
| 20260831010118 | 68 | 249 | 2.6 | 8.7 | 0.00 | 0.05 | 0.05 | 41 | 1023.7 |
| 20260831004617 | 68 | 241 | 1.7 | 11.3 | 0.00 | 0.05 | 0.05 | 40 | 1023.8 |
| 20260831003111 | 69 | 214 | 4.3 | 10.4 | 0.00 | 0.05 | 0.05 | 40 | 1023.7 |
| 20260831001604 | 69 | 266 | 3.5 | 10.4 | 0.00 | 0.05 | 0.05 | 39 | 1023.8 |
| 20260831000111 | 70 | 200 | 3.5 | 13.0 | 0.00 | 0.05 | 0.05 | 39 | 1023.9 |
| 20260830234626 | 70 | 205 | 5.2 | 14.8 | 0.00 | 0.05 | 0.05 | 38 | 1023.9 |
| 20260830233105 | 71 | 205 | 3.5 | 12.2 | 0.00 | 0.05 | 0.05 | 38 | 1023.9 |
| 20260830231613 | 71 | 220 | 5.2 | 11.3 | 0.00 | 0.05 | 0.05 | 38 | 1023.4 |
| 20260830230105 | 72 | 225 | 1.7 | 12.2 | 0.00 | 0.05 | 0.05 | 37 | 1023.4 |
| 20260830224604 | 71 | 255 | 3.5 | 14.8 | 0.00 | 0.05 | 0.05 | 37 | 1023.2 |
| 20260830223102 | 71 | 200 | 4.3 | 11.3 | 0.00 | 0.05 | 0.05 | 38 | 1023.1 |
| 20260830221609 | 70 | 197 | 7.8 | 20.9 | 0.00 | 0.05 | 0.05 | 39 | 1023.5 |
| 20260830220106 | 68 | 229 | 7.0 | 19.1 | 0.00 | 0.05 | 0.05 | 42 | 1023.7 |
| 20260830214607 | 68 | 239 | 7.0 | 16.5 | 0.00 | 0.05 | 0.05 | 42 | 1023.7 |
| 20260830213115 | 67 | 244 | 4.3 | 13.9 | 0.00 | 0.05 | 0.05 | 45 | 1024.1 |
| 20260830211617 | 66 | 202 | 5.2 | 15.6 | 0.01 | 0.05 | 0.05 | 46 | 1024.6 |
| 20260830210109 | 65 | 276 | 4.3 | 17.4 | 0.05 | 0.05 | 0.05 | 50 | 1024.5 |
| 20260830204605 | 63 | 184 | 5.2 | 11.3 | 0.05 | 0.05 | 0.05 | 63 | 1024.5 |
| 20260830203118 | 58 | 0 | 2.6 | 13.0 | 0.05 | 0.05 | 0.05 | 75 | 1024.7 |
| 20260830201612 | 62 | 221 | 6.1 | 18.2 | 0.04 | 0.04 | 0.04 | 62 | 1026.0 |
| 20260830200112 | 71 | 143 | 4.3 | 13.0 | 0.00 | 0.00 | 0.00 | 41 | 1024.7 |
| 20260830194606 | 72 | 293 | 0.9 | 13.0 | 0.00 | 0.00 | 0.00 | 39 | 1023.6 |
| 20260830193104 | 71 | 101 | 1.7 | 5.2 | 0.00 | 0.00 | 0.00 | 40 | 1023.1 |
| 20260830191625 | 70 | 246 | 1.7 | 6.1 | 0.00 | 0.00 | 0.00 | 44 | 1023.2 |
| 20260830190110 | 74 | 338 | 3.5 | 8.7 | 0.00 | 0.00 | 0.00 | 36 | 1023.2 |
| 20260830184608 | 75 | 0 | 2.6 | 10.4 | 0.00 | 0.00 | 0.00 | 34 | 1022.3 |
| 20260830183104 | 75 | 87 | 5.2 | 10.4 | 0.00 | 0.00 | 0.00 | 34 | 1022.6 |
| 20260830181602 | 75 | 61 | 7.0 | 12.2 | 0.00 | 0.00 | 0.00 | 34 | 1022.6 |
| 20260830180108 | 77 | 39 | 3.5 | 11.3 | 0.00 | 0.00 | 0.00 | 31 | 1022.6 |
| 20260830174617 | 78 | 195 | 1.7 | 7.0 | 0.00 | 0.00 | 0.00 | 30 | 1022.8 |
| 20260830173106 | 77 | 125 | 2.6 | 8.7 | 0.00 | 0.00 | 0.00 | 33 | 1022.8 |